Location: El Conde
(10.2895°N, 67.2409°W)
Time: 07:39:47
(UTC+00:00)

Cosmos 1238 Rocket - Pass Details

Date: 19 May 2024
Orbit: 365 x 877 km, 82.9° (Epoch: 22 June)

Event Time Altitude Azimuth Distance (km) Brightness Sun altitude
Rises 22:58:29 0° 158° (SSE) 2,839 6.0 -4.1°
Reaches altitude 10° 23:00:52 10° 144° (SE) 2,026 5.2 -4.6°
Maximum altitude 23:04:36 25° 89° (E) 1,381 4.3 -5.5°
Drops below altitude 10° 23:08:47 10° 34° (NE) 2,290 5.8 -6.4°
Sets 23:11:38 0° 22° (NNE) 3,296 6.8 -7.1°
